Content
SEND FEEDBACK

Daily
Averages
Monthly
Summary
French Polynesia

PAPEETE, FRENCH POLYNESIA


Home > Oceania > French Polynesia
Elevation: 7 feet     Latitude: 17 33S     Longitude: 149 36W

WEATHER
 
SELECT A DAY
Number of Records: 208,079;   Date Range: 6/30/96 - 7/20/14
 
SHARE

PRINT THIS DATA

[ ← Previous Day ]
WEATHER ALMANAC - APRIL 27, 2013
[ Next Day → ]
[ °C ]   °F
Weather ElementAverageHighLow
Temperature82.6 °F88 °F (11:00 am)77 °F (2:30 am)
Dewpoint73.3 °F77 °F (10:30 am)69.8 °F (4:30 am)
Humidity72.7 %84 % (2:30 pm)60 % (11:00 am)
Barometer29.91 in29.95 in (8:00 am)29.83 in (3:30 pm)
Wind Speed9.1 mph31.3 mph (2:00 pm)
Weather ElementAverage
Visibility6.8 mi
Wind DirectionENE (61.5 °)

Weather ElementTotal
Precipitation---
Cooling Degree Days17.5 (Base 65)
Growing Degree Days32.5 (Base 50)
Averaged from 55 records on April 27, 2013
WEATHER CONDITIONS BREAKOUT
WIND DIRECTION BREAKOUT
WEATHER BY HOUR - APRIL 27, 2013
[ °C ]   °F
Local TimeTemperatureDewpointHumidityBarometerVisibilityWind DirectionWind SpeedGust SpeedPrecipitationEventsConditions
12:30 AM78.8 °F73.4 °F83 %29.92 in6.2 miENE (60°)4.6 mphScattered Clouds
1:00 AM78.8 °F73.4 °F83 %29.92 in6.2 miENE (70°)4.6 mphScattered Clouds
1:30 AM78.8 °F71.6 °F78 %29.89 in6.2 miEast (100°)4.6 mphScattered Clouds
2:00 AM78.0 °F71.0 °F73 %29.91 in12.0 miEast (80°)3.5 mphScattered Clouds
2:00 AM78.8 °F71.6 °F78 %29.89 in6.2 miEast (80°)3.5 mphPartly Cloudy
2:30 AM77.0 °F71.6 °F83 %29.89 in6.2 miENE (70°)3.5 mphPartly Cloudy
3:00 AM78.8 °F71.6 °F78 %29.89 in6.2 miENE (70°)5.8 mphPartly Cloudy
3:30 AM78.8 °F71.6 °F78 %29.89 in6.2 miENE (60°)5.8 mph
4:00 AM78.8 °F71.6 °F78 %29.89 in6.2 miEast (80°)3.5 mph
4:30 AM78.8 °F69.8 °F74 %29.89 in6.2 miEast (90°)3.5 mph
5:00 AM78.0 °F70.0 °F71 %29.90 inENE (70°)6.7 mphClear
5:00 AM78.8 °F69.8 °F74 %29.89 inENE (70°)3.5 mph
5:30 AM78.8 °F71.6 °F78 %29.89 inENE (70°)8.1 mph
6:00 AM78.8 °F71.6 °F78 %29.89 in6.2 miENE (60°)6.9 mphScattered Clouds
6:30 AM78.8 °F71.6 °F78 %29.92 in6.2 miENE (60°)4.6 mphMostly Cloudy
7:00 AM80.6 °F71.6 °F74 %29.92 in6.2 miENE (60°)4.6 mphMostly Cloudy
7:30 AM82.4 °F71.6 °F70 %29.92 in6.2 miEast (100°)4.6 mphMostly Cloudy
8:00 AM84.0 °F74.0 °F64 %29.95 in12.0 miSSE (150°)5.8 mphPartly Cloudy
8:00 AM84.2 °F73.4 °F70 %29.95 in6.2 miSSE (150°)5.8 mphScattered Clouds
8:30 AM86.0 °F71.6 °F62 %29.95 in6.2 miNE (40°)4.6 mphMostly Cloudy
9:00 AM86.0 °F73.4 °F66 %29.95 in6.2 miENE (60°)6.9 mphMostly Cloudy
9:30 AM86.0 °F73.4 °F66 %29.95 in6.2 miNE (50°)12.7 mphScattered Clouds
10:00 AM87.8 °F75.2 °F66 %29.95 in6.2 miNE (50°)11.5 mphScattered Clouds
10:30 AM87.8 °F77.0 °F70 %29.95 in6.2 miNE (50°)11.5 mphScattered Clouds
11:00 AM88.0 °F76.0 °F60 %29.94 in12.0 miNE (40°)26.8 mphScattered Clouds
11:00 AM87.8 °F75.2 °F66 %29.92 in6.2 miNE (40°)13.8 mphScattered Clouds
11:30 AM87.8 °F75.2 °F66 %29.92 in6.2 miNE (50°)12.7 mphScattered Clouds
12:00 PM87.8 °F73.4 °F62 %29.89 in6.2 miENE (60°)15.0 mphScattered Clouds
12:30 PM87.8 °F75.2 °F66 %29.89 in6.2 miNE (50°)13.8 mphScattered Clouds
1:00 PM87.8 °F77.0 °F70 %29.89 in6.2 miNE (50°)13.8 mphScattered Clouds
1:30 PM87.8 °F75.2 °F66 %29.86 in6.2 miENE (60°)12.7 mphScattered Clouds
2:00 PM85.0 °F74.0 °F64 %29.89 in9.0 miNE (40°)31.3 mphScattered Clouds
2:00 PM86.0 °F75.2 °F70 %29.89 in6.2 miNE (40°)16.1 mphScattered Clouds
2:30 PM82.4 °F77.0 °F84 %29.86 in6.2 miNE (40°)11.5 mphMostly Cloudy
3:00 PM86.0 °F77.0 °F74 %29.86 in6.2 miENE (60°)11.5 mphScattered Clouds
3:30 PM86.0 °F77.0 °F74 %29.83 in6.2 miNE (40°)12.7 mphScattered Clouds
4:00 PM86.0 °F75.2 °F70 %29.86 in6.2 miNE (40°)13.8 mphPartly Cloudy
4:30 PM84.2 °F77.0 °F79 %29.86 in6.2 miNE (50°)11.5 mphScattered Clouds
5:00 PM83.0 °F74.0 °F67 %29.89 in9.0 miNNE (20°)16.1 mphMostly Cloudy
5:00 PM82.4 °F73.4 °F74 %29.89 in6.2 miNNE (20°)16.1 mphMostly Cloudy
5:30 PM84.2 °F73.4 °F70 %29.89 in6.2 miENE (70°)9.2 mphMostly Cloudy
6:00 PM82.4 °F75.2 °F79 %29.89 in6.2 miENE (70°)10.4 mphMostly Cloudy
6:30 PM82.4 °F75.2 °F79 %29.89 in6.2 miENE (60°)8.1 mphScattered Clouds
7:00 PM82.4 °F73.4 °F74 %29.92 in6.2 miENE (70°)8.1 mphScattered Clouds
7:30 PM82.4 °F73.4 °F74 %29.92 in6.2 miENE (60°)6.9 mphScattered Clouds
8:00 PM82.0 °F72.0 °F65 %29.95 in12.0 miENE (60°)11.2 mphPartly Cloudy
8:00 PM82.4 °F71.6 °F70 %29.95 in6.2 miENE (60°)5.8 mphScattered Clouds
8:30 PM80.6 °F73.4 °F79 %29.95 in6.2 miNNE (20°)6.9 mphRainLight Rain Showers
9:00 PM80.6 °F73.4 °F79 %29.92 in6.2 miENE (60°)4.6 mphScattered Clouds
9:30 PM80.6 °F71.6 °F74 %29.92 in6.2 miENE (70°)5.8 mphPartly Cloudy
10:00 PM80.6 °F71.6 °F74 %29.92 in6.2 miENE (70°)5.8 mphScattered Clouds
10:30 PM80.6 °F71.6 °F74 %29.92 in5.0 miNE (40°)5.8 mphRainLight Rain Showers
11:00 PM80.0 °F72.0 °F72 %29.93 in9.0 miENE (60°)4.6 mphRainLight Rain Showers
11:00 PM80.6 °F71.6 °F74 %29.92 in6.2 miENE (60°)4.6 mphScattered Clouds
11:30 PM80.6 °F73.4 °F79 %29.92 in6.2 miNE (50°)10.4 mphScattered Clouds
Hourly data recorded from NTAA, located miles away from Papeete, French Polynesia







STORIES FROM OUR PARTNERS